Regional Weather Roundup
Issued by NWS

Home | Current Version | Previous Version | Graphics & Text | Print | Product List | Glossary On
Versions: 1 2 3 4 5 6 7 8 9 10 11 12 13 14 15 16 17 18 19 20 21 22 23 24 25 26 27 28 29 30 31 32 33 34 35 36 37 38 39 40 41 42 43 44 45 46 47 48 49 50
000
ASUS43 KLMK 260710
RWRKY
KENTUCKY REGIONAL WEATHER ROUNDUP
NATIONAL WEATHER SERVICE LOUISVILLE KY
300 AM EDT MON JUN 26 2017

NOTE "FAIR" INDICATES FEW OR NO CLOUDS BELOW 12,000 FEET
WITH NO SIGNIFICANT WEATHER AND/OR OBSTRUCTIONS TO VISIBILITY.

KYZ001>023-026-027-061>063-070>075-260800-
WESTERN AND SOUTH CENTRAL KENTUCKY

CITY           SKY/WX    TMP DP  RH WIND       PRES   REMARKS
PADUCAH        CLOUDY    68  55  63 CALM      30.17S
HENDERSON      PTCLDY    56  54  93 CALM      30.18S
OWENSBORO      CLOUDY    64  52  64 CALM      30.17F
HOPKINSVILLE   MOCLDY    65  56  74 N6        30.16S
BOWLING GREEN  CLEAR     61  59  93 CALM      30.16S
GLASGOW        CLEAR     58  58 100 CALM      30.16S
$$

KYZ024-025-028>034-038-045-046-053-260800-
NORTH CENTRAL KENTUCKY

CITY           SKY/WX    TMP DP  RH WIND       PRES   REMARKS
LOUISVILLE/SDF PTCLDY    64  50  60 NW3       30.15S
LOUISVILLE/LOU CLEAR     65  51  60 CALM      30.15F
FORT KNOX      PTCLDY    55  50  83 W5        30.15S
$$

KYZ035>037-039>044-047>052-055>060-089>105-260800-
NORTHEAST KENTUCKY

CITY           SKY/WX    TMP DP  RH WIND       PRES   REMARKS
LEXINGTON      CLEAR     59  48  67 CALM      30.15S
COVINGTON      PTCLDY    58  51  78 W8        30.13F
FRANKFORT      CLEAR     57  51  80 CALM      30.13S
$$

KYZ054-064>069-076>088-106>120-260800-
SOUTHEAST KENTUCKY

CITY           SKY/WX    TMP DP  RH WIND       PRES   REMARKS
JACKSON        CLEAR     61  52  72 CALM      30.16F
LONDON         CLEAR     57  53  86 CALM      30.17S
SOMERSET       CLEAR     54  54 100 CALM      30.17F
MIDDLESBORO    CLEAR     54  54  99 CALM      30.20F
MONTICELLO     SUNNY     56  54  93 N8        30.18F
$$





USA.gov is the U.S. government's official web portal to all federal, state and local government web resources and services.